GW1321 Weather Reports


time (UTC)temp
C
wind
direction
speed
KPH
gust
KPH
rain 1hr
cm
rain 24hr
cm
rain mn
cm
humidity
%
barometer
mb
20260506051029 6 360 1.6 6.4 0.00 1.60 0.00 95 1012.0
20260506050529 6 360 3.2 6.4 0.00 1.60 0.00 95 1012.0
20260506045029 7 360 3.2 6.4 0.00 1.60 1.60 95 1012.0
20260506044544 7 360 1.6 4.8 0.00 1.60 1.60 95 1012.0
20260506044029 7 0 0.0 4.8 0.00 1.60 1.60 96 1011.9
20260506043533 7 360 1.6 4.8 0.00 1.60 1.60 95 1011.9
20260506043045 7 360 1.6 4.8 0.00 1.60 1.60 95 1011.8
20260506042530 7 360 1.6 4.8 0.00 1.60 1.60 95 1012.0
20260506042030 7 360 1.6 9.7 0.00 1.60 1.60 95 1011.9
20260506041546 7 360 1.6 9.7 0.00 1.60 1.60 95 1011.7
20260506041029 7 360 3.2 8.0 0.00 1.60 1.60 95 1011.5
20260506040533 7 360 1.6 8.0 0.00 1.60 1.60 95 1011.7
20260506040042 7 360 4.8 8.0 0.00 1.60 1.60 95 1011.4
20260506035530 7 360 1.6 8.0 0.00 1.60 1.60 95 1011.5
20260506035030 7 360 1.6 9.7 0.00 1.60 1.60 95 1011.4
20260506034541 7 360 4.8 9.7 0.00 1.60 1.60 95 1011.2
20260506034030 7 360 3.2 6.4 0.00 1.60 1.60 95 1011.2
20260506033529 7 360 3.2 6.4 0.00 1.60 1.60 95 1011.2
20260506033036 7 360 3.2 9.7 0.00 1.60 1.60 95 1011.0
20260506032530 7 360 1.6 9.7 0.00 1.60 1.60 95 1011.0
20260506032030 7 360 3.2 6.4 0.00 1.60 1.60 96 1010.9
20260506031543 7 360 1.6 6.4 0.00 1.60 1.60 95 1010.9
20260506031029 7 360 1.6 6.4 0.00 1.60 1.60 95 1010.8
20260506030529 7 360 0.0 6.4 0.00 1.60 1.60 95 1010.8
20260506030043 7 360 1.6 4.8 0.00 1.60 1.60 96 1010.4
20260506025529 7 360 0.0 4.8 0.00 1.60 1.60 95 1010.8
20260506025028 7 360 3.2 4.8 0.00 1.60 1.60 95 1010.2
20260506024541 7 360 1.6 4.8 0.00 1.60 1.60 95 1010.3
20260506024029 7 360 3.2 4.8 0.00 1.60 1.60 95 1010.0
20260506023531 7 360 1.6 12.9 0.00 1.60 1.60 95 1010.0
20260506023058 7 0 1.6 12.9 0.00 1.60 1.60 95 1010.1
20260506022530 7 360 3.2 9.7 0.00 1.60 1.60 95 1010.0
20260506022028 7 360 3.2 8.0 0.00 1.60 1.60 95 1010.0
20260506021604 7 360 1.6 8.0 0.00 1.60 1.60 95 1010.2
20260506021030 7 360 3.2 12.9 0.00 1.60 1.60 95 1010.2
20260506020529 7 360 1.6 12.9 0.00 1.60 1.60 95 1010.1
20260506020039 7 360 4.8 12.9 0.00 1.60 1.60 95 1010.1
20260506015529 7 360 4.8 8.0 0.00 1.60 1.60 95 1010.2
20260506015031 7 360 1.6 9.7 0.00 1.60 1.60 95 1010.3
20260506014541 7 360 3.2 9.7 0.00 1.60 1.60 95 1010.3
20260506014029 7 360 4.8 9.7 0.00 1.60 1.60 95 1009.7
20260506013528 7 360 3.2 9.7 0.00 1.60 1.60 95 1009.5
20260506013044 7 360 4.8 9.7 0.00 1.60 1.60 95 1009.2
20260506012529 7 360 3.2 6.4 0.00 1.60 1.60 95 1009.0
20260506012029 7 360 1.6 4.8 0.00 1.60 1.60 95 1009.3
20260506011555 7 360 1.6 6.4 0.00 1.60 1.60 95 1009.2
20260506011030 7 360 3.2 6.4 0.00 1.60 1.60 95 1009.4
20260506010529 7 360 3.2 6.4 0.00 1.60 1.60 95 1009.3
20260506010046 7 360 1.6 6.4 0.00 1.60 1.60 95 1009.2
20260506005528 7 360 3.2 6.4 0.00 1.60 1.60 95 1009.2
20260506005032 7 360 1.6 6.4 0.00 1.60 1.60 95 1009.1
20260506004539 7 360 1.6 6.4 0.00 1.60 1.60 95 1009.0
20260506004028 7 360 1.6 6.4 0.00 1.60 1.60 95 1009.0
20260506003528 7 360 3.2 14.5 0.00 1.60 1.60 95 1008.9
20260506003041 7 360 4.8 14.5 0.00 1.60 1.60 95 1008.6
20260506002528 8 360 3.2 14.5 0.00 1.60 1.60 95 1008.8
20260506002031 8 360 3.2 6.4 0.00 1.60 1.60 95 1008.6
20260506001537 8 360 3.2 8.0 0.00 1.60 1.60 95 1008.8
20260506001028 8 360 1.6 8.0 0.00 1.60 1.60 95 1008.7
20260506000532 8 360 3.2 8.0 0.00 1.60 1.60 95 1008.6
20260506000049 8 360 3.2 9.7 0.00 1.60 1.60 95 1008.3
20260505235530 8 360 3.2 9.7 0.00 1.60 1.60 95 1008.4
20260505235030 8 360 4.8 8.0 0.00 1.60 1.60 95 1008.4
20260505234543 8 360 3.2 9.7 0.00 1.60 1.60 95 1008.4
20260505234027 8 360 4.8 9.7 0.00 1.60 1.60 95 1008.2
20260505233528 8 360 3.2 9.7 0.00 1.60 1.60 95 1008.1
20260505233040 8 360 3.2 9.7 0.00 1.60 1.60 95 1008.1
20260505232532 8 360 4.8 9.7 0.00 1.60 1.60 95 1008.1
20260505232030 8 360 4.8 9.7 0.00 1.60 1.60 95 1007.8
20260505231549 8 360 3.2 6.4 0.00 1.60 1.60 95 1007.9
20260505231030 9 360 3.2 6.4 0.00 1.60 1.60 95 1007.7
20260505230530 9 360 1.6 8.0 0.00 1.60 1.60 95 1007.7
20260505230044 9 360 3.2 12.9 0.00 1.60 1.60 95 1007.4
20260505225531 9 360 3.2 12.9 0.00 1.60 1.60 95 1007.7
20260505225030 9 360 6.4 12.9 0.00 1.60 1.60 95 1007.9
20260505224543 10 360 1.6 8.0 0.00 1.60 1.60 95 1007.7
20260505224027 10 360 1.6 9.7 0.00 1.60 1.60 95 1007.6
20260505223528 10 360 4.8 9.7 0.00 1.60 1.60 95 1007.4
20260505223041 10 360 3.2 8.0 0.00 1.60 1.60 95 1007.3
20260505222527 10 360 3.2 8.0 0.00 1.60 1.60 95 1007.2
20260505222030 10 360 3.2 8.0 0.00 1.60 1.60 95 1007.2
20260505221542 10 360 3.2 8.0 0.00 1.60 1.60 95 1007.2
20260505221030 10 360 1.6 6.4 0.00 1.60 1.60 95 1007.0
20260505220528 10 360 3.2 6.4 0.00 1.60 1.60 95 1007.1
20260505220051 10 360 1.6 6.4 0.00 1.60 1.60 95 1007.6
20260505215531 10 360 3.2 6.4 0.00 1.60 1.60 95 1007.6
20260505215031 10 360 3.2 6.4 0.00 1.60 1.60 95 1007.4
20260505214554 10 360 1.6 6.4 0.00 1.60 1.60 95 1007.3
20260505214030 10 360 1.6 4.8 0.00 1.60 1.60 95 1007.2
20260505213530 10 360 1.6 12.9 0.00 1.60 1.60 95 1007.1
20260505213044 10 360 1.6 12.9 0.00 1.60 1.60 95 1007.0
20260505212528 10 360 4.8 8.0 0.00 1.60 1.60 95 1007.0
20260505212030 11 360 1.6 6.4 0.00 1.60 1.60 95 1006.9
20260505211545 11 360 3.2 9.7 0.00 1.60 1.60 95 1006.8
20260505211030 11 360 4.8 9.7 0.00 1.60 1.60 95 1006.9
20260505210532 11 360 3.2 8.0 0.00 1.60 1.60 95 1007.0
20260505210038 11 360 3.2 9.7 0.00 1.60 1.60 95 1007.0
20260505205531 11 360 4.8 9.7 0.00 1.60 1.60 95 1006.9
20260505205029 11 360 3.2 8.0 0.00 1.60 1.60 95 1007.0
20260505204543 11 360 1.6 4.8 0.00 1.60 1.60 95 1007.0
20260505204029 11 360 1.6 6.4 0.00 1.60 1.60 95 1007.0
20260505203529 11 360 0.0 9.7 0.00 1.60 1.60 95 1007.0
20260505203101 11 360 4.8 9.7 0.03 1.60 1.60 95 1006.8
20260505202529 11 360 3.2 8.0 0.03 1.60 1.60 95 1006.9
20260505202030 11 360 3.2 6.4 0.03 1.60 1.60 95 1006.8
20260505201547 11 360 3.2 6.4 0.03 1.60 1.60 95 1007.2
20260505201029 11 360 1.6 6.4 0.03 1.60 1.60 95 1007.5
20260505200532 11 360 1.6 8.0 0.03 1.60 1.60 95 1007.5
20260505200047 11 360 0.0 8.0 0.03 1.60 1.60 95 1007.3
20260505195530 11 360 3.2 16.1 0.03 1.60 1.60 95 1006.5
20260505195030 11 360 4.8 16.1 0.03 1.60 1.60 95 1006.2
20260505194543 12 360 4.8 9.7 0.03 1.60 1.60 95 1006.1
20260505194031 12 360 3.2 8.0 0.03 1.60 1.60 95 1006.7
20260505193530 12 360 3.2 6.4 0.03 1.60 1.60 95 1006.7
20260505193038 12 360 1.6 6.4 0.00 1.57 1.57 95 1006.8
20260505192530 12 360 3.2 6.4 0.03 1.57 1.57 95 1006.7
20260505192030 12 360 3.2 6.4 0.03 1.57 1.57 94 1006.9
20260505191541 12 360 1.6 6.4 0.03 1.57 1.57 94 1007.1
20260505191030 12 360 1.6 6.4 0.03 1.57 1.57 95 1006.9
20260505190530 12 360 1.6 9.7 0.03 1.57 1.57 95 1006.7
20260505190046 12 360 3.2 9.7 0.03 1.57 1.57 95 1006.7
20260505185530 13 360 3.2 8.0 0.03 1.57 1.57 94 1006.5
20260505185031 13 360 1.6 4.8 0.03 1.57 1.57 95 1006.6
20260505184543 13 360 1.6 4.8 0.03 1.57 1.57 94 1006.6
20260505184034 13 360 0.0 4.8 0.03 1.57 1.57 94 1006.7
20260505183530 13 360 1.6 4.8 0.03 1.57 1.57 94 1006.5
20260505183043 13 360 0.0 6.4 0.03 1.57 1.57 94 1006.3
20260505182529 14 360 1.6 6.4 0.00 1.55 1.55 95 1006.1
20260505182030 14 360 1.6 14.5 0.00 1.55 1.55 94 1006.0
20260505181544 14 360 3.2 14.5 0.00 1.55 1.55 94 1006.1
20260505181031 15 360 4.8 9.7 0.00 1.55 1.55 94 1006.3
20260505180531 15 360 1.6 6.4 0.00 1.55 1.55 94 1006.2
20260505180040 15 360 3.2 6.4 0.00 1.55 1.55 95 1006.2
20260505175531 16 360 0.0 3.2 0.00 1.55 1.55 95 1006.1
20260505175030 16 0 0.0 3.2 0.00 1.55 1.55 95 1006.3
20260505174545 16 0 0.0 6.4 0.00 1.55 1.55 95 1006.1
20260505174031 16 0 0.0 6.4 0.00 1.55 1.55 95 1006.1
20260505173531 16 360 1.6 6.4 0.00 1.55 1.55 95 1006.0
20260505173040 16 360 0.0 3.2 0.00 1.55 1.55 96 1005.9
20260505172530 16 360 0.0 3.2 0.00 1.55 1.55 96 1005.8
20260505172031 16 0 0.0 3.2 0.00 1.55 1.55 96 1005.9
20260505171544 16 0 0.0 3.2 0.00 1.55 1.55 96 1005.9
20260505171028 16 360 1.6 3.2 0.00 1.55 1.55 96 1006.1
20260505170530 16 360 0.0 3.2 0.00 1.55 1.55 96 1006.2
20260505170055 16 0 0.0 3.2 0.00 1.55 1.55 96 1006.3
20260505165530 16 0 0.0 3.2 0.00 1.55 1.55 96 1006.2
20260505165030 16 360 0.0 3.2 0.00 1.55 1.55 96 1006.2
20260505164544 16 0 0.0 3.2 0.00 1.55 1.55 96 1006.0
20260505164030 16 0 0.0 3.2 0.00 1.55 1.55 96 1005.9
20260505163531 16 0 0.0 3.2 0.00 1.55 1.55 96 1005.9
20260505163043 16 360 0.0 4.8 0.00 1.55 1.55 96 1006.0
20260505162533 16 360 1.6 4.8 0.00 1.55 1.55 96 1005.9
20260505162030 16 360 1.6 3.2 0.00 1.55 1.55 96 1005.9
20260505161540 16 0 1.6 4.8 0.00 1.55 1.55 96 1005.9
20260505161030 16 360 1.6 4.8 0.00 1.55 1.55 96 1005.7
20260505160529 16 360 1.6 4.8 0.00 1.55 1.55 96 1005.7
20260505153047 15 0 0.0 3.2 0.00 1.55 1.55 96 1005.5
20260505152528 15 0 0.0 3.2 0.00 1.55 1.55 96 1005.4
20260505152026 15 0 0.0 3.2 0.00 1.55 1.55 96 1005.5
20260505151556 15 360 0.0 3.2 0.00 1.55 1.55 96 1005.6
20260505151028 15 360 0.0 3.2 0.00 1.55 1.55 96 1005.7
20260505150529 15 0 0.0 8.0 0.00 1.55 1.55 96 1005.7
20260505140528 15 0 0.0 4.8 0.00 1.55 1.55 96 1006.5
20260505125027 15 0 0.0 1.6 0.00 1.55 1.55 96 1005.7
20260505124544 15 0 0.0 1.6 0.00 1.55 1.55 95 1005.6
20260505124028 15 0 0.0 1.6 0.00 1.55 1.55 95 1005.6
20260505123528 15 0 0.0 3.2 0.00 1.55 1.55 95 1005.4
20260505123055 15 0 0.0 3.2 0.00 1.55 1.55 95 1005.2
20260505122527 15 0 0.0 1.6 0.00 1.55 1.55 95 1005.2
20260505122027 15 0 0.0 1.6 0.00 1.55 1.55 95 1005.2
20260505121553 15 360 0.0 1.6 0.00 1.55 1.55 95 1005.1
20260505121028 15 0 0.0 3.2 0.00 1.55 1.55 95 1005.0
20260505120527 15 0 0.0 3.2 0.00 1.55 1.55 95 1005.1
20260505120044 15 0 0.0 3.2 0.00 1.55 1.55 95 1005.0
20260505115527 15 0 0.0 1.6 0.00 1.55 1.55 95 1005.1
20260505115028 15 0 0.0 1.6 0.00 1.55 1.55 95 1005.1
20260505114545 15 0 0.0 1.6 0.00 1.55 1.55 95 1004.9
20260505114026 15 0 0.0 1.6 0.03 1.55 1.55 95 1004.7
20260505113526 15 0 0.0 1.6 0.03 1.55 1.55 95 1004.9
20260505113043 15 0 0.0 1.6 0.03 1.55 1.55 95 1005.0
20260505112528 15 0 0.0 1.6 0.03 1.55 1.55 95 1004.9
20260505112028 15 0 0.0 3.2 0.03 1.55 1.55 95 1004.9
20260505111545 15 0 0.0 4.8 0.03 1.55 1.55 95 1005.0
20260505111030 15 360 0.0 4.8 0.05 1.55 1.55 95 1005.1
20260505110527 15 0 0.0 1.6 0.05 1.55 1.55 95 1005.1
20260505102027 15 0 0.0 3.2 0.28 1.52 1.52 95 1006.0
20260505101552 15 0 0.0 3.2 0.25 1.47 1.47 95 1006.2
20260505101028 15 360 0.0 3.2 0.28 1.47 1.47 95 1006.2
20260505100531 15 0 0.0 3.2 0.38 1.47 1.47 95 1006.4
20260505100137 15 0 0.0 1.6 0.41 1.47 1.47 95 1006.2
20260505095528 15 0 0.0 1.6 0.41 1.42 1.42 95 1006.6
20260505095027 15 0 0.0 1.6 0.51 1.42 1.42 95 1006.5
20260505094541 15 0 0.0 1.6 0.51 1.40 1.40 95 1006.2
20260505094027 15 0 0.0 1.6 0.53 1.40 1.40 94 1006.2
20260505093528 15 0 0.0 1.6 0.51 1.37 1.37 95 1005.9
20260505093043 15 360 0.0 1.6 0.48 1.32 1.32 94 1006.5
20260505092528 15 360 0.0 1.6 0.43 1.24 1.24 95 1006.5
20260505092028 15 360 0.0 1.6 0.48 1.24 1.24 94 1006.5
20260505091540 15 360 0.0 3.2 0.51 1.24 1.24 94 1006.2
20260505091030 15 0 0.0 3.2 0.48 1.22 1.22 94 1005.7
20260505090528 15 0 0.0 3.2 0.38 1.09 1.09 94 1005.7
20260505090051 15 0 1.6 3.2 0.46 1.07 1.07 94 1006.4
20260505085527 15 360 0.0 3.2 0.48 0.99 0.99 94 1006.0
20260505085030 15 0 0.0 1.6 0.46 0.89 0.89 94 1005.4
20260505084549 15 0 0.0 3.2 0.64 0.89 0.89 94 1005.4
20260505084029 15 360 0.0 3.2 0.71 0.86 0.86 94 1005.4
20260505083526 15 360 0.0 3.2 0.74 0.86 0.86 94 1006.0
20260505083049 15 0 0.0 1.6 0.74 0.84 0.84 93 1005.6
20260505082530 15 0 0.0 1.6 0.74 0.81 0.81 93 1006.0
20260505082030 15 0 0.0 3.2 0.71 0.76 0.76 93 1006.4
20260505081545 15 0 0.0 3.2 0.69 0.74 0.74 93 1006.2
20260505081034 15 360 1.6 3.2 0.69 0.74 0.74 93 1006.1
20260505080530 15 0 0.0 3.2 0.66 0.69 0.69 92 1006.0
20260505080042 15 360 1.6 3.2 0.58 0.61 0.61 92 1006.1
20260505075532 15 360 0.0 4.8 0.46 0.48 0.48 92 1006.9
20260505075029 15 0 1.6 4.8 0.41 0.43 0.43 92 1006.6
20260505074540 15 0 0.0 4.8 0.23 0.23 0.23 92 1006.9
20260505074026 15 360 1.6 4.8 0.15 0.15 0.15 91 1006.5
20260505073530 15 360 1.6 4.8 0.10 0.10 0.10 91 1006.0
20260505073044 15 360 0.0 3.2 0.10 0.10 0.10 91 1006.1
20260505072531 15 0 0.0 3.2 0.08 0.08 0.08 90 1005.8
20260505072030 15 360 0.0 3.2 0.05 0.05 0.05 89 1005.7
20260505071542 16 0 0.0 0.0 0.05 0.05 0.05 89 1006.0
20260505071030 16 0 0.0 3.2 0.05 0.05 0.05 88 1006.0
20260505070535 16 0 0.0 3.2 0.03 0.03 0.03 87 1006.1
20260505070046 16 0 0.0 3.2 0.03 0.03 0.03 86 1006.2
20260505065531 16 0 0.0 3.2 0.03 0.03 0.03 85 1006.3
20260505065033 17 0 0.0 3.2 0.03 0.03 0.03 82 1005.4
20260505064547 17 360 0.0 1.6 0.00 0.00 0.00 81 1005.4
20260505064030 17 0 0.0 0.0 0.00 0.00 0.00 80 1005.6
20260505063530 17 0 0.0 1.6 0.00 0.00 0.00 77 1005.7
20260505063046 17 0 0.0 3.2 0.00 0.00 0.00 76 1006.0
20260505062533 17 0 0.0 4.8 0.00 0.00 0.00 75 1006.1
20260505062030 17 0 1.6 4.8 0.00 0.00 0.00 75 1006.2
20260505061546 17 360 1.6 4.8 0.00 0.00 0.00 75 1006.3
20260505061032 17 360 1.6 4.8 0.00 0.00 0.00 76 1006.2
20260505060530 17 360 0.0 3.2 0.00 0.00 0.00 76 1006.3
20260505060045 17 0 0.0 1.6 0.00 0.00 0.00 76 1006.3